[[{"header":{"parameterUnit":"m.s-1","parameterCategory":2,"la1":30.2991,"la2":30.254,"lo1":-89.0895,"lo2":-89.0444,"dy":0.0017,"dx":0.0017,"nx":28,"ny":28,"refTime":"2024-08-18T09:00:00:Z","depth":"0","parameterNumber":2,"parameterNumberName":"U-component_of_CURRENTS"},"data":[0,0,0,0,0,0,0,0,0,0,0,0,0,0,0,0,0,0,0,0,0,0,0,0,0,0,0,0,0,0,0,0,0,0,0,0,0,0,0,0,0,0,0,0,0,0,0,0,0,0,0,0,0,0,0,0,0,0,-0.2617,-0.2617,0,-0.2605,-0.2605,-0.2604,-0.2525,-0.2523,-0.2522,-0.252,-0.2437,-0.2436,-0.2435,0,0,0,0,0,0,0,0,0,0,0,0,0,-0.2607,-0.2608,-0.2617,-0.2617,-0.2617,-0.2605,-0.2605,-0.2604,-0.2525,-0.2523,-0.2521,-0.2519,-0.2437,-0.2436,-0.2435,0,0,0,0,0,0,0,0,0,0,0,0,0,-0.2603,-0.2608,-0.2617,-0.2578,-0.2574,-0.2605,-0.2605,-0.2604,-0.2526,-0.2523,-0.2521,-0.2518,-0.2437,-0.2436,-0.2435,-0.2483,0,0,-0.2433,-0.2432,0,0,0,0,0,0,0,0,-0.2604,-0.2604,-0.2584,-0.258,-0.2577,-0.2565,-0.2571,-0.2561,-0.2527,-0.2543,-0.252,-0.2517,-0.2476,-0.2472,-0.2474,-0.248,-0.2476,-0.2433,-0.2432,-0.2432,-0.2431,0,0,0,0,0,0,0,-0.2604,-0.2604,-0.2611,-0.2584,-0.258,-0.2572,-0.2568,-0.2569,-0.2522,-0.2541,-0.2536,-0.2538,-0.2473,-0.2475,-0.2471,-0.2475,-0.2433,-0.2432,-0.2431,-0.2431,-0.2491,-0.2493,0,0,0,0,0,0,-0.261,-0.2604,-0.2611,-0.2611,-0.2586,-0.2575,-0.257,-0.257,-0.2523,-0.2515,-0.254,-0.2534,-0.2478,-0.2473,-0.2468,-0.249,-0.2432,-0.2431,-0.243,-0.2489,-0.2492,-0.2494,0,0,0,0,0,0,-0.261,-0.2611,-0.2612,-0.2608,-0.2608,-0.2578,-0.2579,-0.2571,-0.2562,-0.2524,-0.2512,-0.2536,-0.2476,-0.2469,-0.2466,-0.2487,-0.2431,-0.243,-0.2487,-0.249,-0.2493,-0.2554,0,0,0,0,0,0,-0.261,-0.2611,-0.2612,-0.2609,-0.2608,-0.2627,-0.2581,-0.2573,-0.2569,-0.2561,-0.2518,-0.2507,-0.2473,-0.2468,-0.2465,-0.2485,-0.2429,-0.2484,-0.2488,-0.2492,-0.2549,-0.2559,-0.2567,0,0,0,0,0,-0.2609,-0.2625,-0.2612,-0.2613,-0.2611,-0.2628,-0.2628,-0.2596,-0.2571,-0.2576,-0.2548,-0.2508,-0.2491,-0.2469,-0.2465,-0.2485,-0.2482,-0.2487,-0.2492,-0.2545,-0.2557,-0.2567,0,0,0,0,0,0,-0.2615,-0.2618,-0.2604,-0.2616,-0.262,-0.2615,-0.2617,-0.2605,-0.259,-0.2575,-0.2533,-0.2523,-0.2529,-0.2511,-0.2488,-0.2518,-0.2482,-0.2486,-0.2524,-0.2535,-0.2543,-0.2544,-0.2428,0,0,0,0,0,-0.2622,-0.2633,-0.2634,-0.2643,-0.2645,-0.2635,-0.2637,-0.2621,-0.2611,-0.26,-0.2578,-0.2559,-0.2554,-0.2543,-0.2536,-0.2556,-0.2515,-0.257,-0.2579,-0.2586,-0.2588,-0.258,-0.2587,-0.251,-0.251,-0.2509,0,0,-0.2622,-0.263,-0.263,-0.2645,-0.2641,-0.2657,-0.2628,-0.2636,-0.2648,-0.2597,-0.2604,-0.2589,-0.2568,-0.2581,-0.2583,-0.2562,-0.2579,-0.2592,-0.2598,-0.2596,-0.2585,-0.2592,-0.2599,-0.2513,-0.2512,-0.2512,0,0,-0.2626,-0.2639,-0.2639,-0.2657,-0.2665,-0.2674,-0.268,-0.2682,-0.2677,-0.2692,-0.2661,-0.2661,-0.2653,-0.2644,-0.2637,-0.2699,-0.2629,-0.27,-0.2739,-0.2731,-0.2737,-0.2741,-0.2656,-0.2653,-0.2701,-0.2701,-0.2701,0,-0.2619,-0.2618,-0.2643,-0.2658,-0.2672,-0.2684,-0.2692,-0.2713,-0.2716,-0.272,-0.2697,-0.2703,-0.2683,-0.2702,-0.272,-0.2716,-0.2675,-0.2694,-0.274,-0.2744,-0.2747,-0.266,-0.2655,-0.2705,-0.2704,-0.2704,-0.2704,0,-0.2611,-0.2622,-0.2632,-0.2655,-0.2692,-0.27,-0.2742,-0.277,-0.2772,-0.2777,-0.2796,-0.2783,-0.2776,-0.2785,-0.2766,-0.2795,-0.2741,-0.2751,-0.2705,-0.2758,-0.2663,-0.2657,-0.271,-0.2709,-0.2708,-0.2707,0,0,-0.2537,-0.2604,-0.26,-0.261,-0.2683,-0.2701,-0.2771,-0.2806,-0.2828,-0.2846,-0.2861,-0.2874,-0.286,-0.2855,-0.2843,-0.2846,-0.2822,-0.2812,-0.281,-0.2712,-0.2744,-0.2615,-0.2594,-0.2841,-0.2841,-0.2842,-0.2651,0,-0.2495,-0.2513,-0.2574,-0.2603,-0.2613,-0.2694,-0.2756,-0.2813,-0.285,-0.2882,-0.2893,-0.2898,-0.2891,-0.288,-0.289,-0.2845,-0.2816,-0.2868,-0.2721,-0.2715,-0.2583,-0.2588,-0.2456,-0.2269,-0.2644,-0.2643,-0.2642,0,-0.2429,-0.246,-0.2476,-0.2563,-0.2575,-0.2614,-0.2708,-0.276,-0.2849,-0.2877,-0.2912,-0.2923,-0.2932,-0.2923,-0.286,-0.2891,-0.282,-0.2782,-0.2774,-0.2631,-0.2576,-0.2288,-0.2243,-0.2195,-0.2632,-0.2633,-0.2634,0,-0.2321,-0.2378,-0.2385,-0.2414,-0.2531,-0.2561,-0.2618,-0.2733,-0.2763,-0.2861,-0.2867,-0.2918,-0.2879,-0.287,-0.2789,-0.2824,-0.2695,-0.2728,-0.2533,-0.2519,-0.2365,-0.2338,-0.2246,-0.2676,-0.2676,-0.2677,-0.2677,0,-0.2239,-0.2239,-0.2324,-0.2333,-0.2354,-0.247,-0.2502,-0.2594,-0.2684,-0.2704,-0.2823,-0.2812,-0.2866,-0.2809,-0.2776,-0.2603,-0.2667,-0.252,-0.2473,-0.2378,-0.2355,-0.2273,-0.2312,-0.2669,-0.2671,-0.2672,-0.2674,0,-0.2121,-0.2172,-0.2185,-0.228,-0.2302,-0.2314,-0.2403,-0.2436,-0.2534,-0.2565,-0.2586,-0.2678,-0.2615,-0.2621,-0.2561,-0.2509,-0.2349,-0.2338,-0.2183,-0.2122,-0.1921,-0.1968,-0.1838,-0.179,-0.2101,-0.2097,-0.2093,0,-0.2059,-0.2051,-0.2117,-0.2122,-0.2156,-0.2185,-0.2221,-0.2343,-0.2379,-0.2458,-0.2454,-0.2431,-0.2395,-0.2248,-0.2194,-0.2084,-0.2123,-0.1882,-0.1951,-0.1869,-0.1889,-0.195,-0.1926,-0.1743,-0.1737,-0.1732,-0.1728,0,-0.1951,-0.1969,-0.1992,-0.1993,-0.2011,-0.2034,-0.208,-0.2086,-0.222,-0.2227,-0.2209,-0.2182,-0.2073,-0.1919,-0.1801,-0.1742,-0.1827,-0.1772,-0.1752,-0.1647,-0.1647,-0.1588,-0.1868,-0.1684,-0.1688,-0.1692,-0.1694,-0.1696,-0.1857,-0.1841,-0.1857,-0.1851,-0.1873,-0.1872,-0.1834,-0.1888,-0.1885,-0.1869,-0.1931,-0.1827,-0.1725,-0.1549,-0.147,-0.1303,-0.146,-0.1268,-0.1334,-0.1404,-0.1365,-0.1508,-0.1251,-0.1253,-0.1254,-0.1256,-0.1257,0,-0.1731,-0.1726,-0.1714,-0.1703,-0.1668,-0.1722,-0.1733,-0.1671,-0.1603,-0.1606,-0.1539,-0.1418,-0.1235,-0.1167,-0.1007,-0.0907,-0.0937,-0.0888,-0.097,-0.0972,-0.1115,-0.1108,-0.0731,-0.0732,-0.0732,-0.0732,-0.0732,-0.0732,-0.1661,-0.161,-0.1606,-0.1499,-0.1483,-0.1383,-0.1354,-0.1286,-0.1252,-0.1116,-0.1051,-0.1039,-0.099,-0.095,-0.0773,-0.0707,-0.0729,-0.0671,-0.0755,-0.0881,-0.0924,-0.0965,-0.0965,-0.0565,-0.0565,-0.0551,-0.0551,-0.0551]},{"header":{"parameterUnit":"m.s-1","parameterCategory":2,"la1":30.2991,"la2":30.254,"lo1":-89.0895,"lo2":-89.0444,"dy":0.0017,"dx":0.0017,"nx":28,"ny":28,"refTime":"2024-08-18T09:00:00:Z","depth":"0","parameterNumber":3,"parameterNumberName":"V-component_of_CURRENTS"},"data":[0,0,0,0,0,0,0,0,0,0,0,0,0,0,0,0,0,0,0,0,0,0,0,0,0,0,0,0,0,0,0,0,0,0,0,0,0,0,0,0,0,0,0,0,0,0,0,0,0,0,0,0,0,0,0,0,0,0,-0.0596,-0.0596,0,-0.0596,-0.0596,-0.0596,-0.0595,-0.0595,-0.0595,-0.0595,-0.0555,-0.0554,-0.0553,0,0,0,0,0,0,0,0,0,0,0,0,0,-0.0595,-0.0595,-0.0596,-0.0596,-0.0595,-0.0596,-0.0596,-0.0596,-0.0595,-0.0595,-0.0595,-0.0595,-0.0555,-0.0554,-0.0553,0,0,0,0,0,0,0,0,0,0,0,0,0,-0.0597,-0.0595,-0.0596,-0.0594,-0.0594,-0.0596,-0.0596,-0.0596,-0.0595,-0.0595,-0.0595,-0.0595,-0.0556,-0.0554,-0.0553,-0.0549,0,0,-0.0549,-0.0548,0,0,0,0,0,0,0,0,-0.0596,-0.0597,-0.0594,-0.0594,-0.0594,-0.0594,-0.0581,-0.0578,-0.0596,-0.0596,-0.0595,-0.0595,-0.0563,-0.0561,-0.0565,-0.0547,-0.0546,-0.0549,-0.0548,-0.0547,-0.0547,0,0,0,0,0,0,0,-0.0596,-0.0597,-0.0597,-0.0594,-0.0594,-0.0593,-0.0593,-0.0581,-0.0582,-0.0596,-0.0596,-0.0593,-0.0563,-0.0566,-0.0564,-0.0545,-0.0549,-0.0547,-0.0547,-0.0546,-0.051,-0.0509,0,0,0,0,0,0,-0.0593,-0.0597,-0.0597,-0.0597,-0.0593,-0.0593,-0.0593,-0.0595,-0.0583,-0.058,-0.0594,-0.0593,-0.0569,-0.0565,-0.0562,-0.0549,-0.0547,-0.0546,-0.0545,-0.051,-0.051,-0.0509,0,0,0,0,0,0,-0.0593,-0.0594,-0.0597,-0.0595,-0.0596,-0.0593,-0.0596,-0.0596,-0.0597,-0.0581,-0.0578,-0.0595,-0.0568,-0.0564,-0.0557,-0.0548,-0.0545,-0.0544,-0.051,-0.051,-0.0509,-0.0528,0,0,0,0,0,0,-0.0594,-0.0594,-0.0601,-0.0595,-0.0595,-0.0597,-0.0596,-0.0596,-0.0596,-0.0595,-0.0581,-0.0578,-0.0568,-0.0559,-0.0555,-0.0546,-0.0543,-0.051,-0.051,-0.0509,-0.0527,-0.0528,-0.0529,0,0,0,0,0,-0.0594,-0.0606,-0.0602,-0.0602,-0.0603,-0.0597,-0.0597,-0.0596,-0.0596,-0.0597,-0.0592,-0.0578,-0.0554,-0.0558,-0.0554,-0.0544,-0.051,-0.051,-0.051,-0.0527,-0.0528,-0.0529,0,0,0,0,0,0,-0.0613,-0.0607,-0.0602,-0.0613,-0.0603,-0.0596,-0.06,-0.0597,-0.0596,-0.0595,-0.0582,-0.0578,-0.0566,-0.0554,-0.0559,-0.0532,-0.0527,-0.0526,-0.0541,-0.0542,-0.0543,-0.0543,-0.0542,0,0,0,0,0,-0.0619,-0.0623,-0.0612,-0.0619,-0.0614,-0.0606,-0.0606,-0.0602,-0.0596,-0.0596,-0.0586,-0.0574,-0.0562,-0.0553,-0.0541,-0.053,-0.0495,-0.0518,-0.0519,-0.0519,-0.0516,-0.0447,-0.044,-0.0508,-0.0508,-0.0508,0,0,-0.0624,-0.0623,-0.0625,-0.0622,-0.0615,-0.0617,-0.0606,-0.0603,-0.0608,-0.059,-0.0595,-0.0577,-0.0561,-0.0549,-0.0541,-0.0537,-0.0485,-0.0519,-0.052,-0.0516,-0.0445,-0.0439,-0.0433,-0.0508,-0.0508,-0.0508,0,0,-0.0627,-0.0638,-0.0634,-0.0636,-0.0626,-0.0626,-0.0624,-0.0615,-0.0614,-0.0613,-0.06,-0.0577,-0.0567,-0.0546,-0.0537,-0.0533,-0.0493,-0.0528,-0.0529,-0.0462,-0.0455,-0.0449,-0.0408,-0.0398,-0.0526,-0.0526,-0.0526,0,-0.0633,-0.0635,-0.0631,-0.0634,-0.0644,-0.0631,-0.0636,-0.0635,-0.0626,-0.0618,-0.0616,-0.0576,-0.0563,-0.0535,-0.0539,-0.0533,-0.0497,-0.0529,-0.0462,-0.0455,-0.0448,-0.0407,-0.0396,-0.0527,-0.0527,-0.0527,-0.0527,0,-0.0626,-0.064,-0.0641,-0.0644,-0.0655,-0.0659,-0.0659,-0.0661,-0.0658,-0.0642,-0.0612,-0.0586,-0.0559,-0.0548,-0.0548,-0.0495,-0.0486,-0.0472,-0.0458,-0.0442,-0.0401,-0.0389,-0.0528,-0.0528,-0.0528,-0.0527,0,0,-0.0613,-0.063,-0.0633,-0.0653,-0.0667,-0.0679,-0.069,-0.0685,-0.0684,-0.0654,-0.0633,-0.0603,-0.057,-0.0556,-0.0533,-0.0477,-0.0409,-0.046,-0.0456,-0.0418,-0.0273,-0.0302,-0.0291,-0.0377,-0.0375,-0.0373,-0.0267,0,-0.0607,-0.0625,-0.0633,-0.0671,-0.0692,-0.0705,-0.0723,-0.0721,-0.0704,-0.068,-0.0623,-0.0594,-0.0578,-0.056,-0.05,-0.0432,-0.0376,-0.044,-0.0295,-0.0291,-0.0317,-0.0277,-0.0252,-0.0158,-0.0255,-0.0253,-0.0252,0,-0.0597,-0.0623,-0.0651,-0.0709,-0.0717,-0.0736,-0.0767,-0.0775,-0.0735,-0.0718,-0.0659,-0.0612,-0.0537,-0.0522,-0.0379,-0.0419,-0.0351,-0.0292,-0.0286,-0.0296,-0.0297,-0.0187,-0.0132,0.0003,-0.0233,-0.0234,-0.0235,0,-0.0611,-0.0643,-0.0674,-0.0695,-0.0745,-0.0763,-0.0784,-0.0777,-0.0784,-0.0726,-0.0706,-0.0605,-0.0555,-0.0443,-0.0345,-0.0348,-0.0185,-0.017,-0.0129,-0.0131,-0.0073,-0.0074,0.0132,-0.0058,-0.0058,-0.0058,-0.0059,0,-0.0623,-0.0654,-0.0684,-0.0715,-0.0766,-0.0787,-0.0817,-0.0823,-0.0802,-0.0797,-0.0719,-0.0682,-0.0528,-0.0428,-0.0332,-0.0203,-0.0171,-0.0119,-0.0096,-0.0083,-0.0086,0.006,0.0118,-0.0054,-0.0055,-0.0056,-0.0057,0,-0.0643,-0.0654,-0.0709,-0.0761,-0.0779,-0.082,-0.0862,-0.0878,-0.0853,-0.0838,-0.082,-0.0717,-0.0596,-0.0462,-0.028,-0.0196,0.001,-0.0034,-0.005,-0.0032,0.0123,0.0176,0.036,0.0438,0.005,0.005,0.005,0,-0.065,-0.0676,-0.0749,-0.0788,-0.0814,-0.0865,-0.0903,-0.0909,-0.0921,-0.0865,-0.0858,-0.0738,-0.0666,-0.0426,-0.0253,-0.0081,0.0023,0.0045,0.0045,0.0147,0.0225,0.024,0.0294,0.012,0.012,0.0121,0.0121,0,-0.0682,-0.0703,-0.0756,-0.0832,-0.0884,-0.0942,-0.0984,-0.1002,-0.0997,-0.0971,-0.0912,-0.0841,-0.0627,-0.0412,-0.0204,-0.0097,0.0145,0.0058,0.0203,0.0328,0.0325,0.0404,0.0012,0.0126,0.0125,0.0125,0.0125,0.0125,-0.0703,-0.0748,-0.0808,-0.0882,-0.0945,-0.1006,-0.1034,-0.1061,-0.1074,-0.1036,-0.0972,-0.0843,-0.0525,-0.0228,-0.0104,0.0203,0.0179,0.0312,0.0376,0.0387,0.0444,0.0029,0.0134,0.0134,0.0134,0.0133,0.0133,0,-0.0724,-0.0774,-0.0849,-0.0939,-0.1005,-0.1024,-0.1079,-0.108,-0.1081,-0.1056,-0.1,-0.0643,-0.0348,-0.0034,0.0382,0.054,0.0584,0.0624,0.0701,0.0749,0.0436,0.042,0.0546,0.0545,0.0545,0.0545,0.0545,0.0545,-0.0738,-0.0804,-0.0848,-0.0961,-0.1017,-0.1069,-0.1087,-0.1078,-0.1052,-0.0907,-0.0723,-0.0596,-0.0064,0.0511,0.0884,0.0902,0.1063,0.1016,0.1109,0.0939,0.0916,0.0894,0.0896,0.1118,0.1119,0.141,0.1414,0.1416]}],[{"header":{"parameterUnit":"m.s-1","parameterCategory":2,"la1":30.2991,"la2":30.254,"lo1":-89.0895,"lo2":-89.0444,"dy":0.0017,"dx":0.0017,"nx":28,"ny":28,"refTime":"2024-08-18T09:00:00:Z","depth":"2","parameterNumber":2,"parameterNumberName":"U-component_of_CURRENTS"},"data":[0,0,0,0,0,0,0,0,0,0,0,0,0,0,0,0,0,0,0,0,0,0,0,0,0,0,0,0,0,0,0,0,0,0,0,0,0,0,0,0,0,0,0,0,0,0,0,0,0,0,0,0,0,0,0,0,0,0,-0.2244,-0.2246,0,-0.2313,-0.2313,-0.2313,-0.2328,-0.2328,-0.2328,-0.2328,-0.2501,-0.2505,-0.251,0,0,0,0,0,0,0,0,0,0,0,0,0,-0.2235,-0.2234,-0.2244,-0.2246,-0.2247,-0.2313,-0.2313,-0.2314,-0.2328,-0.2328,-0.2328,-0.2328,-0.2499,-0.2505,-0.251,0,0,0,0,0,0,0,0,0,0,0,0,0,-0.2259,-0.2234,-0.2244,-0.2267,-0.227,-0.2313,-0.2313,-0.2314,-0.2328,-0.2328,-0.2328,-0.2328,-0.2498,-0.2504,-0.2511,-0.2551,0,0,-0.2532,-0.2535,0,0,0,0,0,0,0,0,-0.2257,-0.2258,-0.2262,-0.2265,-0.2269,-0.2317,-0.2374,-0.24,-0.2328,-0.2299,-0.2328,-0.2328,-0.2453,-0.2464,-0.2466,-0.2559,-0.2566,-0.2532,-0.2537,-0.2539,-0.2541,0,0,0,0,0,0,0,-0.2255,-0.2256,-0.2265,-0.2264,-0.2268,-0.2312,-0.2313,-0.2378,-0.2372,-0.2302,-0.2304,-0.2322,-0.2455,-0.2459,-0.2471,-0.2569,-0.2532,-0.2538,-0.2542,-0.2545,-0.2761,-0.2762,0,0,0,0,0,0,-0.2254,-0.2254,-0.2263,-0.2268,-0.2271,-0.2312,-0.2314,-0.2297,-0.2369,-0.2381,-0.2322,-0.2323,-0.2447,-0.2462,-0.2477,-0.2598,-0.2539,-0.2546,-0.255,-0.2759,-0.2761,-0.2763,0,0,0,0,0,0,-0.2252,-0.2252,-0.226,-0.227,-0.2275,-0.2312,-0.2293,-0.2298,-0.2327,-0.2384,-0.2397,-0.2349,-0.2448,-0.2467,-0.2593,-0.2602,-0.2549,-0.2555,-0.2757,-0.276,-0.2762,-0.2797,0,0,0,0,0,0,-0.2251,-0.225,-0.2251,-0.2268,-0.2274,-0.2316,-0.2294,-0.23,-0.2339,-0.2341,-0.2412,-0.2426,-0.245,-0.2583,-0.26,-0.2611,-0.256,-0.2755,-0.2758,-0.2761,-0.2793,-0.28,-0.2805,0,0,0,0,0,-0.225,-0.2263,-0.2249,-0.2253,-0.2267,-0.2319,-0.2327,-0.235,-0.2341,-0.2371,-0.2437,-0.2425,-0.2612,-0.2593,-0.2611,-0.2624,-0.2754,-0.2757,-0.2761,-0.2791,-0.2799,-0.2805,0,0,0,0,0,0,-0.2272,-0.2267,-0.2252,-0.2264,-0.2299,-0.2325,-0.2356,-0.2365,-0.2433,-0.2438,-0.2482,-0.2504,-0.2603,-0.2622,-0.2599,-0.2692,-0.2666,-0.2674,-0.2682,-0.269,-0.2696,-0.2677,-0.2566,0,0,0,0,0,-0.2271,-0.2268,-0.2285,-0.2298,-0.2312,-0.2332,-0.2358,-0.2371,-0.2427,-0.2453,-0.2514,-0.2568,-0.2626,-0.267,-0.2727,-0.2806,-0.2769,-0.2814,-0.282,-0.2825,-0.2822,-0.2813,-0.2817,-0.2775,-0.2775,-0.2775,0,0,-0.229,-0.2283,-0.2286,-0.2303,-0.2319,-0.2348,-0.2347,-0.2392,-0.2429,-0.2467,-0.256,-0.2608,-0.2656,-0.2737,-0.2778,-0.276,-0.281,-0.283,-0.2834,-0.2828,-0.2817,-0.2821,-0.2824,-0.2778,-0.2777,-0.2777,0,0,-0.231,-0.2309,-0.2305,-0.2332,-0.2362,-0.2384,-0.2403,-0.2448,-0.2483,-0.2579,-0.2601,-0.2673,-0.2774,-0.2803,-0.2828,-0.2907,-0.2848,-0.2909,-0.2926,-0.2917,-0.292,-0.2922,-0.2838,-0.2833,-0.2906,-0.2906,-0.2906,0,-0.2328,-0.231,-0.2326,-0.2333,-0.2359,-0.24,-0.2419,-0.247,-0.2561,-0.2604,-0.2618,-0.2748,-0.2795,-0.2866,-0.2889,-0.2917,-0.2878,-0.2893,-0.2923,-0.2924,-0.2926,-0.284,-0.2833,-0.2908,-0.2908,-0.2908,-0.2908,0,-0.2329,-0.2333,-0.2347,-0.235,-0.2393,-0.2427,-0.2486,-0.2548,-0.2596,-0.2646,-0.2749,-0.2818,-0.288,-0.29,-0.2926,-0.2959,-0.2913,-0.2933,-0.2896,-0.2931,-0.2838,-0.2831,-0.2911,-0.2911,-0.291,-0.291,0,0,-0.2297,-0.2334,-0.2333,-0.2341,-0.2399,-0.2431,-0.2509,-0.2588,-0.2626,-0.2734,-0.2782,-0.2895,-0.2918,-0.2946,-0.2973,-0.2978,-0.2947,-0.2961,-0.296,-0.2862,-0.2867,-0.2717,-0.2693,-0.2973,-0.2973,-0.2973,-0.2781,0,-0.2282,-0.2293,-0.232,-0.2361,-0.2378,-0.2445,-0.2508,-0.2594,-0.2671,-0.2745,-0.2826,-0.289,-0.2938,-0.2948,-0.2974,-0.2975,-0.2936,-0.2993,-0.2861,-0.2856,-0.2707,-0.2684,-0.2526,-0.2334,-0.2773,-0.2772,-0.2771,0,-0.224,-0.2262,-0.2283,-0.2346,-0.2357,-0.2395,-0.248,-0.2542,-0.2664,-0.2717,-0.2804,-0.2867,-0.2929,-0.2935,-0.2938,-0.2973,-0.2911,-0.2892,-0.2885,-0.2729,-0.2693,-0.2381,-0.2303,-0.2757,-0.2758,-0.2759,-0.276,0,-0.2177,-0.2226,-0.2242,-0.2264,-0.2349,-0.2375,-0.2425,-0.2534,-0.2578,-0.2686,-0.2704,-0.282,-0.2819,-0.2843,-0.2833,-0.288,-0.2778,-0.2831,-0.2617,-0.2603,-0.2434,-0.2404,-0.2767,-0.2767,-0.2768,-0.2768,-0.2769,0,-0.213,-0.2141,-0.2212,-0.2223,-0.2246,-0.2322,-0.2353,-0.2423,-0.2503,-0.2543,-0.2668,-0.2678,-0.2795,-0.2778,-0.2789,-0.266,-0.2732,-0.2591,-0.2549,-0.2436,-0.241,-0.2771,-0.2774,-0.2761,-0.2763,-0.2764,-0.2765,0,-0.2043,-0.2092,-0.211,-0.2191,-0.221,-0.2221,-0.2283,-0.2312,-0.2384,-0.2421,-0.2446,-0.2545,-0.2523,-0.2574,-0.2555,-0.2533,-0.2474,-0.2384,-0.2204,-0.2145,-0.2309,-0.2316,-0.2147,-0.2141,-0.2135,-0.213,-0.2126,0,-0.1994,-0.1994,-0.2057,-0.2062,-0.2091,-0.2121,-0.2143,-0.2238,-0.2267,-0.2333,-0.2336,-0.2327,-0.2314,-0.221,-0.2177,-0.2095,-0.2231,-0.1867,-0.1946,-0.2271,-0.2248,-0.2265,-0.228,-0.1713,-0.1706,-0.17,-0.1695,0,-0.1901,-0.1919,-0.1941,-0.1947,-0.1966,-0.1984,-0.2023,-0.2029,-0.2133,-0.2137,-0.2128,-0.2115,-0.2016,-0.1878,-0.175,-0.171,-0.19,-0.1741,-0.2118,-0.1904,-0.1849,-0.1831,-0.1862,-0.1644,-0.1649,-0.1653,-0.1655,-0.1658,-0.1815,-0.1801,-0.1818,-0.1814,-0.1836,-0.1833,-0.1797,-0.1848,-0.184,-0.1834,-0.1894,-0.1794,-0.1771,-0.1507,-0.1399,-0.1318,-0.1482,-0.145,-0.1473,-0.1502,-0.1496,-0.1435,-0.1146,-0.1148,-0.115,-0.1152,-0.1153,0,-0.1699,-0.1695,-0.1684,-0.1674,-0.1641,-0.1693,-0.17,-0.1643,-0.1582,-0.1615,-0.1566,-0.136,-0.1211,-0.1192,-0.0983,-0.0925,-0.098,-0.0883,-0.0986,-0.1036,-0.1081,-0.1061,-0.0591,-0.0589,-0.0588,-0.0586,0,0,-0.1635,-0.1587,-0.1581,-0.1481,-0.1467,-0.1373,-0.1345,-0.1289,-0.1273,-0.1196,-0.1141,-0.1192,-0.1185,-0.0913,-0.0826,-0.0684,-0.0867,-0.0634,-0.1087,-0.1262,-0.1306,-0.1401,-0.1423,0,0,0,0,0]},{"header":{"parameterUnit":"m.s-1","parameterCategory":2,"la1":30.2991,"la2":30.254,"lo1":-89.0895,"lo2":-89.0444,"dy":0.0017,"dx":0.0017,"nx":28,"ny":28,"refTime":"2024-08-18T09:00:00:Z","depth":"2","parameterNumber":3,"parameterNumberName":"V-component_of_CURRENTS"},"data":[0,0,0,0,0,0,0,0,0,0,0,0,0,0,0,0,0,0,0,0,0,0,0,0,0,0,0,0,0,0,0,0,0,0,0,0,0,0,0,0,0,0,0,0,0,0,0,0,0,0,0,0,0,0,0,0,0,0,-0.0077,-0.0077,0,-0.0067,-0.0066,-0.0066,-0.0069,-0.007,-0.0071,-0.0071,-0.0131,-0.0131,-0.0132,0,0,0,0,0,0,0,0,0,0,0,0,0,-0.0108,-0.0107,-0.0077,-0.0077,-0.0078,-0.0067,-0.0066,-0.0066,-0.0069,-0.007,-0.0071,-0.0072,-0.013,-0.0131,-0.0132,0,0,0,0,0,0,0,0,0,0,0,0,0,-0.009,-0.0106,-0.0077,-0.0082,-0.0083,-0.0067,-0.0066,-0.0066,-0.0069,-0.007,-0.0071,-0.0072,-0.013,-0.0131,-0.0133,-0.0118,0,0,-0.0137,-0.0137,0,0,0,0,0,0,0,0,-0.0091,-0.0088,-0.0081,-0.0082,-0.0083,-0.0076,-0.0099,-0.0089,-0.0068,-0.0068,-0.0071,-0.0073,-0.0122,-0.0124,-0.011,-0.0121,-0.0124,-0.0137,-0.0138,-0.0138,-0.0138,0,0,0,0,0,0,0,-0.0092,-0.0089,-0.0067,-0.0082,-0.0083,-0.0089,-0.0087,-0.0097,-0.0085,-0.0068,-0.007,-0.0078,-0.0122,-0.0109,-0.0112,-0.0124,-0.0137,-0.0138,-0.0139,-0.0139,-0.0184,-0.0185,0,0,0,0,0,0,-0.0103,-0.009,-0.0068,-0.0067,-0.0097,-0.0088,-0.0085,-0.0072,-0.0084,-0.0088,-0.0077,-0.0078,-0.0106,-0.011,-0.0114,-0.017,-0.0138,-0.0139,-0.014,-0.0184,-0.0184,-0.0185,0,0,0,0,0,0,-0.0103,-0.01,-0.0068,-0.0085,-0.0082,-0.0087,-0.0071,-0.0071,-0.0085,-0.0091,-0.0095,-0.0095,-0.0107,-0.0112,-0.0147,-0.017,-0.014,-0.0141,-0.0183,-0.0184,-0.0184,-0.0235,0,0,0,0,0,0,-0.0104,-0.01,-0.0097,-0.0084,-0.0081,-0.0089,-0.0071,-0.0071,-0.009,-0.0092,-0.0107,-0.0112,-0.0108,-0.0145,-0.0148,-0.0171,-0.0142,-0.0183,-0.0184,-0.0184,-0.0233,-0.0238,-0.0242,0,0,0,0,0,-0.0105,-0.0107,-0.0096,-0.0095,-0.0075,-0.0091,-0.009,-0.0094,-0.009,-0.0107,-0.0112,-0.0113,-0.0152,-0.0147,-0.0151,-0.0174,-0.0182,-0.0183,-0.0184,-0.0231,-0.0237,-0.0241,0,0,0,0,0,0,-0.0129,-0.0108,-0.0096,-0.0093,-0.0104,-0.0095,-0.0108,-0.0108,-0.012,-0.0124,-0.0123,-0.0129,-0.0164,-0.016,-0.0154,-0.0186,-0.0165,-0.0167,-0.02,-0.0205,-0.0209,-0.0204,-0.0143,0,0,0,0,0,-0.0128,-0.0121,-0.0113,-0.0116,-0.0119,-0.0114,-0.0121,-0.0125,-0.0133,-0.0139,-0.015,-0.0156,-0.0163,-0.018,-0.0184,-0.0209,-0.0168,-0.0223,-0.0227,-0.0231,-0.0228,-0.0163,-0.0161,-0.0188,-0.0188,-0.0188,0,0,-0.0146,-0.013,-0.013,-0.0121,-0.0121,-0.0138,-0.0121,-0.0143,-0.0161,-0.0145,-0.0178,-0.0176,-0.0172,-0.0195,-0.021,-0.0202,-0.0205,-0.0232,-0.0235,-0.023,-0.0164,-0.0161,-0.0158,-0.0188,-0.0188,-0.0188,0,0,-0.018,-0.0155,-0.0162,-0.0168,-0.0176,-0.0171,-0.0187,-0.019,-0.0197,-0.0221,-0.021,-0.022,-0.024,-0.0235,-0.0235,-0.0264,-0.0226,-0.0273,-0.0298,-0.0235,-0.0232,-0.0229,-0.0187,-0.0179,-0.0279,-0.0279,-0.0279,0,-0.0202,-0.0201,-0.0176,-0.0188,-0.0203,-0.0193,-0.0223,-0.0221,-0.0241,-0.0247,-0.0244,-0.0242,-0.0251,-0.0259,-0.0274,-0.0274,-0.0235,-0.0283,-0.024,-0.0235,-0.0231,-0.0188,-0.0179,-0.0281,-0.0281,-0.0281,-0.028,0,-0.0241,-0.0246,-0.0257,-0.0257,-0.027,-0.0298,-0.0295,-0.031,-0.031,-0.0305,-0.0315,-0.0301,-0.0299,-0.0304,-0.0305,-0.0289,-0.0271,-0.0249,-0.0226,-0.0231,-0.0187,-0.0176,-0.0285,-0.0284,-0.0283,-0.0283,0,0,-0.028,-0.0283,-0.0288,-0.0306,-0.0311,-0.0332,-0.035,-0.0366,-0.0378,-0.0371,-0.0375,-0.0377,-0.0355,-0.0352,-0.0341,-0.0297,-0.0249,-0.0272,-0.0267,-0.0229,-0.012,-0.0119,-0.0108,-0.0214,-0.0213,-0.0211,-0.0106,0,-0.0325,-0.0361,-0.0348,-0.0403,-0.043,-0.0417,-0.044,-0.0447,-0.0437,-0.0436,-0.0395,-0.0395,-0.0376,-0.0376,-0.0329,-0.0267,-0.0222,-0.0281,-0.0121,-0.0117,-0.0114,-0.0095,-0.0069,0.0027,-0.0096,-0.0094,-0.0092,0,-0.0367,-0.039,-0.0441,-0.0477,-0.0488,-0.0512,-0.0534,-0.0551,-0.0527,-0.0515,-0.0479,-0.0444,-0.0397,-0.0369,-0.024,-0.0277,-0.0209,-0.0149,-0.0143,-0.0114,-0.0096,0.0015,0.0051,-0.0075,-0.0076,-0.0077,-0.0078,0,-0.0413,-0.0456,-0.05,-0.0514,-0.0547,-0.0567,-0.0584,-0.0577,-0.0589,-0.0553,-0.0542,-0.0468,-0.0431,-0.0317,-0.0217,-0.0218,-0.0063,-0.0041,0.0027,0.0028,0.0096,0.0099,0.0061,0.0061,0.0061,0.0061,0.006,0,-0.0461,-0.05,-0.0526,-0.0555,-0.0618,-0.0617,-0.066,-0.0659,-0.0645,-0.0653,-0.0584,-0.0554,-0.0413,-0.0317,-0.0212,-0.0066,-0.0051,0.0032,0.0063,0.0075,0.0075,0.0025,0.0019,0.0065,0.0064,0.0063,0.0062,0,-0.0496,-0.0511,-0.0571,-0.0619,-0.0637,-0.068,-0.0713,-0.0737,-0.0714,-0.0709,-0.0698,-0.0605,-0.0474,-0.0341,-0.0161,-0.0067,0.0075,0.0116,0.0104,0.0131,0.0125,0.0115,0.0232,0.0233,0.0234,0.0234,0.0235,0,-0.0513,-0.0544,-0.0616,-0.0655,-0.0677,-0.0731,-0.0768,-0.0773,-0.0786,-0.0736,-0.0734,-0.0619,-0.0523,-0.0269,-0.0091,0.0104,0.0091,0.0234,0.024,0.0128,0.0146,0.0135,0.0124,0.0311,0.0312,0.0313,0.0314,0,-0.0551,-0.0571,-0.0623,-0.0702,-0.0754,-0.0812,-0.0854,-0.0874,-0.0867,-0.0837,-0.0766,-0.0676,-0.0447,-0.0205,0.002,0.0135,0.0209,0.026,0.0181,0.0245,0.0206,0.0222,0.0209,0.0322,0.0322,0.0321,0.032,0.032,-0.0572,-0.0617,-0.0678,-0.0752,-0.0816,-0.0876,-0.0904,-0.0924,-0.0927,-0.0835,-0.0762,-0.0545,-0.0363,0.0021,0.0145,0.0277,0.0269,0.0351,0.0347,0.0343,0.0314,0.0278,0.0402,0.0401,0.0401,0.0401,0.04,0,-0.0595,-0.0645,-0.072,-0.0809,-0.0876,-0.0896,-0.095,-0.0946,-0.0926,-0.0756,-0.0632,-0.0361,-0.0088,0.0096,0.032,0.0419,0.0407,0.0439,0.0424,0.0416,0.0409,0.0382,0.0488,0.0489,0.0489,0.0489,0,0,-0.0611,-0.0676,-0.0718,-0.0832,-0.089,-0.0942,-0.0959,-0.0934,-0.0814,-0.0656,-0.0431,-0.017,0.0032,0.0212,0.0313,0.0424,0.0393,0.0429,0.0356,0.0321,0.0312,0.0364,0.0315,0,0,0,0,0]}],[{"header":{"parameterUnit":"m.s-1","parameterCategory":2,"la1":30.2991,"la2":30.254,"lo1":-89.0895,"lo2":-89.0444,"dy":0.0017,"dx":0.0017,"nx":28,"ny":28,"refTime":"2024-08-18T09:00:00:Z","depth":"4","parameterNumber":2,"parameterNumberName":"U-component_of_CURRENTS"},"data":[0,0,0,0,0,0,0,0,0,0,0,0,0,0,0,0,0,0,0,0,0,0,0,0,0,0,0,0,0,0,0,0,0,0,0,0,0,0,0,0,0,0,0,0,0,0,0,0,0,0,0,0,0,0,0,0,0,0,-0.1394,-0.1395,0,-0.1446,-0.1446,-0.1447,-0.1465,-0.1465,-0.1465,-0.1465,-0.1497,-0.1497,-0.1498,0,0,0,0,0,0,0,0,0,0,0,0,0,-0.131,-0.1311,-0.1394,-0.1395,-0.1396,-0.1446,-0.1446,-0.1447,-0.1465,-0.1465,-0.1465,-0.1465,-0.1496,-0.1497,-0.1498,0,0,0,0,0,0,0,0,0,0,0,0,0,-0.135,-0.1312,-0.1394,-0.1413,-0.1415,-0.1446,-0.1446,-0.1447,-0.1465,-0.1465,-0.1465,-0.1465,-0.1496,-0.1497,-0.1498,-0.1505,0,0,-0.1502,-0.1503,0,0,0,0,0,0,0,0,-0.1348,-0.1353,-0.1409,-0.1412,-0.1414,-0.1451,-0.1429,-0.1466,-0.1465,-0.1443,-0.1465,-0.1465,-0.1481,-0.1484,-0.149,-0.1506,-0.1508,-0.1502,-0.1503,-0.1503,-0.1504,0,0,0,0,0,0,0,-0.1345,-0.1351,-0.1412,-0.141,-0.1413,-0.1418,-0.1424,-0.1436,-0.1459,-0.1445,-0.1447,-0.1457,-0.1482,-0.1489,-0.1491,-0.1508,-0.1502,-0.1503,-0.1504,-0.1504,-0.1571,-0.1572,0,0,0,0,0,0,-0.1344,-0.1348,-0.1411,-0.1414,-0.1383,-0.142,-0.1426,-0.1437,-0.1459,-0.1464,-0.1457,-0.1458,-0.1487,-0.1489,-0.1492,-0.1542,-0.1503,-0.1505,-0.1505,-0.157,-0.1572,-0.1573,0,0,0,0,0,0,-0.1342,-0.1349,-0.1409,-0.1384,-0.1392,-0.1422,-0.1434,-0.1438,-0.1468,-0.1469,-0.1472,-0.1485,-0.1487,-0.149,-0.1517,-0.1541,-0.1505,-0.1506,-0.1569,-0.1571,-0.1572,-0.1615,0,0,0,0,0,0,-0.1339,-0.1348,-0.1363,-0.1384,-0.1394,-0.1444,-0.1434,-0.1439,-0.1474,-0.1476,-0.1494,-0.1496,-0.1487,-0.1516,-0.1518,-0.1542,-0.1507,-0.1568,-0.157,-0.1572,-0.1612,-0.1618,-0.1623,0,0,0,0,0,-0.1336,-0.1363,-0.1364,-0.1372,-0.1411,-0.1446,-0.1451,-0.147,-0.1476,-0.1496,-0.1503,-0.1496,-0.153,-0.1517,-0.1521,-0.1546,-0.1567,-0.1569,-0.1572,-0.161,-0.1617,-0.1623,0,0,0,0,0,0,-0.1334,-0.1368,-0.1369,-0.1404,-0.1428,-0.145,-0.1479,-0.1486,-0.1509,-0.1517,-0.151,-0.1513,-0.1546,-0.1541,-0.1528,-0.157,-0.1548,-0.1551,-0.1576,-0.1582,-0.1587,-0.1586,-0.1508,0,0,0,0,0,-0.1339,-0.1374,-0.1394,-0.1427,-0.1441,-0.1463,-0.1483,-0.1495,-0.1514,-0.1526,-0.1537,-0.1547,-0.1555,-0.1566,-0.1575,-0.16,-0.1588,-0.1618,-0.1623,-0.1628,-0.1629,-0.1626,-0.163,-0.158,-0.158,-0.158,0,0,-0.1352,-0.1374,-0.1396,-0.143,-0.1453,-0.1479,-0.1476,-0.1518,-0.1539,-0.1525,-0.1567,-0.157,-0.1567,-0.1593,-0.1607,-0.1594,-0.1638,-0.1631,-0.1634,-0.1634,-0.1629,-0.1633,-0.1637,-0.1582,-0.1582,-0.1582,0,0,-0.1394,-0.1412,-0.1452,-0.147,-0.1508,-0.1515,-0.1532,-0.1564,-0.158,-0.1614,-0.1605,-0.1624,-0.1647,-0.1644,-0.1644,-0.1685,-0.1667,-0.1693,-0.1717,-0.1714,-0.1718,-0.1721,-0.1719,-0.1722,-0.1693,-0.1693,-0.1693,0,-0.1409,-0.1452,-0.1469,-0.1502,-0.1524,-0.1534,-0.1569,-0.1583,-0.1619,-0.1629,-0.1636,-0.1663,-0.1669,-0.168,-0.1696,-0.1698,-0.169,-0.1693,-0.172,-0.1723,-0.1725,-0.1722,-0.1725,-0.1695,-0.1695,-0.1695,-0.1695,0,-0.1466,-0.1502,-0.153,-0.1568,-0.1591,-0.1629,-0.164,-0.1666,-0.1684,-0.1689,-0.1719,-0.1723,-0.1734,-0.1743,-0.1735,-0.1755,-0.1743,-0.1728,-0.1702,-0.1733,-0.1728,-0.1729,-0.1699,-0.1698,-0.1697,-0.1697,0,0,-0.1493,-0.156,-0.157,-0.1592,-0.1629,-0.1652,-0.1686,-0.1711,-0.1731,-0.1752,-0.1772,-0.1794,-0.1789,-0.1789,-0.1781,-0.1782,-0.1803,-0.1768,-0.1766,-0.1762,-0.1796,-0.1672,-0.1661,-0.1789,-0.1789,-0.179,-0.1788,0,-0.1534,-0.1603,-0.1629,-0.1685,-0.171,-0.1726,-0.1755,-0.1773,-0.1787,-0.1803,-0.1796,-0.1815,-0.1805,-0.1817,-0.1816,-0.1803,-0.1808,-0.1805,-0.177,-0.1769,-0.1651,-0.1659,-0.1791,-0.1789,-0.1789,-0.179,-0.179,0,-0.1561,-0.1608,-0.1673,-0.173,-0.1747,-0.1782,-0.1819,-0.1846,-0.1853,-0.1865,-0.1865,-0.1854,-0.1856,-0.1847,-0.1836,-0.1833,-0.1825,-0.1814,-0.1813,-0.168,-0.1646,-0.175,-0.1792,-0.1792,-0.1792,-0.1792,-0.1792,0,-0.1535,-0.1627,-0.1681,-0.17,-0.1767,-0.1806,-0.1844,-0.1867,-0.1878,-0.1898,-0.1902,-0.1895,-0.19,-0.1879,-0.1852,-0.185,-0.1831,-0.1823,-0.1704,-0.1696,-0.1791,-0.1788,-0.1823,-0.1823,-0.1823,-0.1823,-0.1823,0,-0.1527,-0.1571,-0.1681,-0.1701,-0.1758,-0.1816,-0.1857,-0.1887,-0.1919,-0.1913,-0.193,-0.1915,-0.1911,-0.1887,-0.186,-0.1772,-0.1836,-0.1704,-0.1681,-0.1811,-0.181,-0.1793,-0.1789,-0.1823,-0.1823,-0.1823,-0.1823,0,-0.1454,-0.1535,-0.1592,-0.1702,-0.1735,-0.1769,-0.1846,-0.1861,-0.192,-0.1912,-0.1918,-0.1933,-0.1898,-0.1875,-0.1847,-0.1773,-0.1712,-0.1675,-0.1819,-0.1805,-0.1582,-0.1582,-0.1532,-0.1528,-0.1524,-0.1521,-0.1518,0,-0.1415,-0.1441,-0.1561,-0.1592,-0.1645,-0.1712,-0.1739,-0.1827,-0.1834,-0.1896,-0.1872,-0.1881,-0.1865,-0.1712,-0.1723,-0.1646,-0.1628,-0.1595,-0.1582,-0.1567,-0.155,-0.1555,-0.156,-0.1512,-0.1511,-0.151,-0.1509,0,-0.1328,-0.1385,-0.1432,-0.1491,-0.1545,-0.1583,-0.1643,-0.1639,-0.1723,-0.1804,-0.1755,-0.1713,-0.1675,-0.1621,-0.1575,-0.1524,-0.1606,-0.1555,-0.1563,-0.155,-0.1541,-0.153,-0.1539,-0.1496,-0.1497,-0.1499,-0.1499,0,-0.1256,-0.1265,-0.1331,-0.1366,-0.1428,-0.1432,-0.1482,-0.1497,-0.152,-0.161,-0.1594,-0.1605,-0.1658,-0.1559,-0.1514,-0.1447,-0.1422,-0.1369,-0.1386,-0.1401,-0.1354,-0.1324,-0.1183,0,0,0,0,0,-0.1175,-0.1172,-0.1198,-0.1232,-0.1286,-0.1316,-0.14,-0.1456,-0.1553,-0.1472,-0.1527,-0.1479,-0.1409,-0.1424,-0.1322,-0.1451,-0.1429,-0.1327,-0.1378,-0.1421,-0.1437,-0.139,0,0,0,0,0,0,-0.1121,-0.1145,-0.1152,-0.1107,-0.1103,-0.114,-0.1189,-0.1263,-0.1227,-0.1334,-0.1298,-0.138,-0.1328,-0.143,-0.1286,-0.1288,-0.1287,-0.1351,-0.1346,-0.1413,-0.1427,-0.1439,-0.1397,0,0,0,0,0]},{"header":{"parameterUnit":"m.s-1","parameterCategory":2,"la1":30.2991,"la2":30.254,"lo1":-89.0895,"lo2":-89.0444,"dy":0.0017,"dx":0.0017,"nx":28,"ny":28,"refTime":"2024-08-18T09:00:00:Z","depth":"4","parameterNumber":3,"parameterNumberName":"V-component_of_CURRENTS"},"data":[0,0,0,0,0,0,0,0,0,0,0,0,0,0,0,0,0,0,0,0,0,0,0,0,0,0,0,0,0,0,0,0,0,0,0,0,0,0,0,0,0,0,0,0,0,0,0,0,0,0,0,0,0,0,0,0,0,0,0.003,0.003,0,0.0056,0.0056,0.0057,0.0085,0.0085,0.0085,0.0086,0.0099,0.0099,0.0099,0,0,0,0,0,0,0,0,0,0,0,0,0,0.0019,0.0019,0.003,0.003,0.003,0.0056,0.0056,0.0057,0.0084,0.0085,0.0085,0.0086,0.0099,0.0099,0.0099,0,0,0,0,0,0,0,0,0,0,0,0,0,0.0033,0.0019,0.0029,0.0047,0.0048,0.0056,0.0056,0.0057,0.0084,0.0085,0.0085,0.0086,0.0099,0.0099,0.0099,0.0089,0,0,0.01,0.01,0,0,0,0,0,0,0,0,0.0032,0.0033,0.0044,0.0046,0.0048,0.0067,0.0058,0.0067,0.0084,0.0071,0.0086,0.0086,0.0087,0.0088,0.0092,0.009,0.0091,0.01,0.01,0.01,0.01,0,0,0,0,0,0,0,0.0031,0.0032,0.004,0.0044,0.0046,0.0059,0.0061,0.006,0.0076,0.0072,0.0074,0.0076,0.0088,0.0092,0.0093,0.0091,0.01,0.01,0.01,0.01,0.005,0.0048,0,0,0,0,0,0,0.0025,0.0031,0.004,0.0041,0.004,0.0058,0.0061,0.0061,0.0076,0.0079,0.0076,0.0078,0.0092,0.0093,0.0093,0.0061,0.01,0.01,0.01,0.0051,0.0049,0.0048,0,0,0,0,0,0,0.0025,0.0026,0.0039,0.0037,0.0039,0.0058,0.0057,0.0061,0.0066,0.0079,0.0082,0.0078,0.0092,0.0093,0.0085,0.0062,0.01,0.01,0.0053,0.005,0.0049,0.0009,0,0,0,0,0,0,0.0025,0.0025,0.0024,0.0036,0.0039,0.0034,0.0057,0.0061,0.0067,0.0069,0.0081,0.0083,0.0093,0.0084,0.0085,0.0063,0.01,0.0054,0.0052,0.0049,0.0012,0.0006,0.0,0,0,0,0,0,0.0024,0.0019,0.0024,0.0025,0.0036,0.0033,0.0035,0.0051,0.0066,0.006,0.0069,0.0083,0.0068,0.0084,0.0084,0.0062,0.0056,0.0052,0.0049,0.0014,0.0007,0.0001,0,0,0,0,0,0,0.0013,0.0021,0.0027,0.0025,0.0024,0.0037,0.0037,0.0048,0.0051,0.0054,0.0071,0.0073,0.0053,0.0061,0.0078,0.0038,0.0061,0.0058,0.0035,0.0028,0.0022,0.0011,0.01,0,0,0,0,0,0.0009,0.0007,0.0013,0.0009,0.001,0.0023,0.0026,0.0031,0.0037,0.004,0.005,0.0052,0.004,0.0038,0.0032,0.0016,0.0033,-0.0002,-0.0007,-0.0012,-0.0022,-0.0033,-0.004,0.0038,0.0038,0.0038,0,0,0.0001,0.0008,0.0005,0.0007,0.0012,-0.0002,0.0026,0.0022,0.0006,0.0039,0.0027,0.0032,0.0029,0.0008,-0.0001,0.0014,-0.0019,-0.0016,-0.002,-0.0028,-0.0037,-0.0044,-0.0051,0.0036,0.0036,0.0036,0,0,-0.0022,-0.0008,-0.0023,-0.0024,-0.0023,-0.0019,-0.0023,-0.0015,-0.0014,-0.0028,-0.0014,-0.0024,-0.0028,-0.0038,-0.0045,-0.0088,-0.0052,-0.0087,-0.012,-0.0131,-0.0137,-0.0142,-0.0096,-0.0097,-0.0087,-0.0087,-0.0087,0,-0.0034,-0.005,-0.0029,-0.0044,-0.0053,-0.0031,-0.0058,-0.0055,-0.0053,-0.0062,-0.0041,-0.0063,-0.0058,-0.0096,-0.0107,-0.0102,-0.0078,-0.009,-0.0137,-0.0142,-0.0147,-0.0099,-0.01,-0.0089,-0.0089,-0.0089,-0.0089,0,-0.0073,-0.0085,-0.0093,-0.0107,-0.0112,-0.0131,-0.0128,-0.0133,-0.0124,-0.0126,-0.0153,-0.0143,-0.0156,-0.0158,-0.0142,-0.018,-0.0139,-0.0143,-0.0116,-0.0157,-0.0103,-0.0103,-0.0093,-0.0092,-0.0091,-0.009,0,0,-0.0113,-0.0122,-0.0128,-0.0148,-0.015,-0.0165,-0.0184,-0.0207,-0.0226,-0.022,-0.0247,-0.0262,-0.0244,-0.025,-0.0232,-0.0235,-0.0231,-0.02,-0.0199,-0.0146,-0.0207,-0.013,-0.0122,-0.0239,-0.024,-0.0241,-0.0142,0,-0.0159,-0.0203,-0.0194,-0.0245,-0.0269,-0.0255,-0.028,-0.0293,-0.0288,-0.0303,-0.0299,-0.0316,-0.0283,-0.0283,-0.0285,-0.0257,-0.0239,-0.0255,-0.0182,-0.0179,-0.0101,-0.0124,-0.0245,-0.0142,-0.0142,-0.0142,-0.0142,0,-0.0206,-0.0232,-0.0286,-0.0321,-0.0332,-0.0356,-0.0387,-0.0405,-0.0412,-0.0406,-0.0409,-0.0389,-0.0394,-0.0358,-0.0324,-0.0332,-0.0271,-0.0237,-0.0233,-0.0153,-0.0105,-0.0102,-0.0141,-0.0141,-0.0141,-0.0141,-0.0141,0,-0.0249,-0.0297,-0.0345,-0.0356,-0.039,-0.0415,-0.0433,-0.0443,-0.0462,-0.0462,-0.0463,-0.0463,-0.0449,-0.0412,-0.0316,-0.0326,-0.0253,-0.0263,-0.0129,-0.012,-0.0199,-0.0194,-0.0232,-0.0232,-0.0233,-0.0233,-0.0233,0,-0.0296,-0.0336,-0.0372,-0.0398,-0.0465,-0.0466,-0.0521,-0.0525,-0.0536,-0.0556,-0.0518,-0.0508,-0.0464,-0.0403,-0.0331,-0.0212,-0.0261,-0.0133,-0.0103,-0.0212,-0.0211,-0.0195,-0.0192,-0.0229,-0.023,-0.0231,-0.0231,0,-0.0321,-0.0345,-0.0405,-0.0459,-0.0482,-0.0525,-0.057,-0.0601,-0.0595,-0.0611,-0.061,-0.055,-0.046,-0.0374,-0.0286,-0.0215,-0.0123,-0.0058,-0.0134,-0.0109,0.0024,0.0023,0.007,0.0074,0.0076,0.0079,0.008,0,-0.0334,-0.0366,-0.0445,-0.0486,-0.0511,-0.0572,-0.0613,-0.0631,-0.0649,-0.0623,-0.0628,-0.0537,-0.0479,-0.0277,-0.0199,-0.0039,-0.0012,0.0047,-0.0014,0.0024,0.0048,0.0044,0.0039,0.0085,0.0086,0.0086,0.0087,0,-0.0358,-0.0384,-0.0433,-0.0518,-0.0574,-0.0636,-0.0685,-0.0701,-0.0706,-0.0704,-0.0611,-0.0497,-0.0372,-0.024,-0.0089,0.0012,-0.0006,0.0076,0.0069,0.0012,0.0042,0.0063,0.0055,0.0096,0.0095,0.0094,0.0094,0,-0.037,-0.0409,-0.0471,-0.0543,-0.0619,-0.0673,-0.07,-0.0699,-0.0708,-0.0665,-0.0627,-0.0484,-0.0409,-0.0208,-0.0087,0.0037,0.0047,0.0066,0.006,0.0051,0.0011,0.0044,0.0124,0,0,0,0,0,-0.0377,-0.042,-0.0491,-0.0574,-0.0646,-0.0682,-0.0738,-0.0752,-0.0752,-0.0679,-0.0647,-0.0515,-0.0297,-0.0208,-0.0071,-0.0067,0.0043,0.0095,0.0056,0.0149,0.0138,0.01,0,0,0,0,0,0,-0.0386,-0.0448,-0.0488,-0.0579,-0.063,-0.0706,-0.0736,-0.0737,-0.0689,-0.066,-0.054,-0.0471,-0.0266,-0.0365,-0.0061,-0.0026,-0.003,0.0193,0.0197,0.0155,0.0145,0.0136,0.0093,0,0,0,0,0]}]]